• In Hungary
  • List of Countries
  • For 7 days
  • Water Temperature
  • Satellite Maps
  • Weather Map
  • News
  • Weather Widgets
  • user-avatar
    Login

    Hourly Weather Warcino

    Today, 21 November, Tuesday

    Time Temperature Precipitation Wind Pressure Humidity
    00:00 +2°C° 0 mm 1 mps 751 mmHg 83%
    01:00 +2°C° 0 mm 1 mps 751 mmHg 84%
    02:00 +1°C° 0 mm 1 mps 751 mmHg 85%
    03:00 -1°C° 0 mm 2 mps 751 mmHg 86%
    04:00 -1°C° 0 mm 2 mps 751 mmHg 88%
    05:00 -1°C° 0 mm 2 mps 751 mmHg 89%
    06:00 -1°C° 0 mm 2 mps 751 mmHg 90%
    07:00 -1°C° 0 mm 2 mps 751 mmHg 91%
    08:00 +1°C° 0 mm 2 mps 751 mmHg 89%
    09:00 +1°C° 0 mm 2 mps 751 mmHg 87%
    10:00 +2°C° 0 mm 2 mps 751 mmHg 85%
    11:00 +3°C° 0 mm 2 mps 751 mmHg 84%
    12:00 +3°C° 0 mm 2 mps 751 mmHg 82%
    13:00 +4°C° 0 mm 2 mps 751 mmHg 81%
    14:00 +3°C° 0 mm 2 mps 751 mmHg 84%
    15:00 +3°C° 0 mm 1 mps 751 mmHg 88%
    16:00 +3°C° 0 mm 1 mps 751 mmHg 92%
    17:00 +3°C° 0 mm 1 mps 751 mmHg 92%
    18:00 +1°C° 0 mm 2 mps 751 mmHg 93%
    19:00 +1°C° 0 mm 2 mps 751 mmHg 94%
    20:00 +1°C° 0 mm 2 mps 751 mmHg 94%
    21:00 +1°C° 0 mm 2 mps 751 mmHg 94%
    22:00 +1°C° 0 mm 2 mps 751 mmHg 94%
    23:00 +1°C° 0 mm 2 mps 751 mmHg 93%

    Tomorrow, 22 November, Wednesday

    Time Temperature Precipitation Wind Pressure Humidity
    00:00 0°C° 0 mm 3 mps 751 mmHg 93%
    01:00 0°C° 0 mm 3 mps 751 mmHg 93%
    02:00 0°C° 0.2 mm 4 mps 750 mmHg 92%
    03:00 0°C° 0.2 mm 4 mps 750 mmHg 90%
    04:00 0°C° 0.2 mm 5 mps 750 mmHg 89%
    05:00 0°C° 0.9 mm 5 mps 749 mmHg 89%
    06:00 -1°C° 0.9 mm 6 mps 749 mmHg 88%
    07:00 +1°C° 0.9 mm 6 mps 748 mmHg 87%
    08:00 +1°C° 1 mm 6 mps 748 mmHg 89%
    09:00 +1°C° 1 mm 6 mps 748 mmHg 90%
    10:00 +1°C° 1 mm 6 mps 748 mmHg 91%
    11:00 +1°C° 0.6 mm 5 mps 748 mmHg 92%
    12:00 +2°C° 0.6 mm 5 mps 748 mmHg 93%
    13:00 +3°C° 0.6 mm 4 mps 748 mmHg 94%
    14:00 +4°C° 0.3 mm 4 mps 748 mmHg 94%
    15:00 +4°C° 0.3 mm 4 mps 748 mmHg 95%
    16:00 +4°C° 0.3 mm 4 mps 748 mmHg 95%
    17:00 +4°C° 0.2 mm 4 mps 748 mmHg 95%
    18:00 +5°C° 0.2 mm 4 mps 749 mmHg 95%
    19:00 +5°C° 0.2 mm 4 mps 749 mmHg 95%
    20:00 +5°C° 0.1 mm 4 mps 749 mmHg 95%
    21:00 +5°C° 0.1 mm 4 mps 749 mmHg 95%
    22:00 +5°C° 0.1 mm 4 mps 749 mmHg 95%
    23:00 +5°C° 0 mm 4 mps 749 mmHg 94%

    Day after tomorrow, 23 November, Thursday

    Time Temperature Precipitation Wind Pressure Humidity
    00:00 +3°C° 0 mm 5 mps 749 mmHg 94%
    01:00 +3°C° 0 mm 5 mps 749 mmHg 93%
    02:00 +3°C° 0 mm 5 mps 749 mmHg 92%
    03:00 +3°C° 0 mm 5 mps 749 mmHg 91%
    04:00 +3°C° 0 mm 6 mps 749 mmHg 90%
    05:00 +3°C° 0 mm 6 mps 749 mmHg 88%
    06:00 +3°C° 0 mm 6 mps 749 mmHg 86%
    07:00 +3°C° 0 mm 6 mps 749 mmHg 84%
    08:00 +3°C° 0 mm 7 mps 749 mmHg 80%
    09:00 +4°C° 0 mm 7 mps 749 mmHg 77%
    10:00 +4°C° 0 mm 7 mps 749 mmHg 73%
    11:00 +5°C° 0 mm 7 mps 749 mmHg 72%
    12:00 +6°C° 0 mm 7 mps 749 mmHg 70%
    13:00 +7°C° 0 mm 6 mps 749 mmHg 68%
    14:00 +7°C° 0 mm 6 mps 749 mmHg 72%
    15:00 +7°C° 0 mm 6 mps 750 mmHg 75%
    16:00 +7°C° 0 mm 6 mps 750 mmHg 78%
    17:00 +7°C° 0 mm 6 mps 750 mmHg 80%
    18:00 +7°C° 0 mm 6 mps 751 mmHg 82%
    19:00 +7°C° 0 mm 6 mps 751 mmHg 84%
    20:00 +7°C° 0 mm 5 mps 752 mmHg 86%
    21:00 +7°C° 0 mm 5 mps 752 mmHg 87%
    22:00 +7°C° 0 mm 5 mps 753 mmHg 89%
    23:00 +7°C° 0 mm 5 mps 753 mmHg 90%

    24 November, Friday

    Time Temperature Precipitation Wind Pressure Humidity
    00:00 +7°C° 0 mm 5 mps 753 mmHg 91%
    01:00 +7°C° 0 mm 4 mps 754 mmHg 92%
    02:00 +7°C° 0 mm 4 mps 754 mmHg 93%
    03:00 +7°C° 0 mm 4 mps 754 mmHg 94%
    04:00 +7°C° 0 mm 3 mps 754 mmHg 95%
    05:00 +6°C° 0 mm 4 mps 754 mmHg 95%
    06:00 +6°C° 0 mm 4 mps 755 mmHg 95%
    07:00 +6°C° 0 mm 4 mps 755 mmHg 95%
    08:00 +7°C° 0 mm 4 mps 755 mmHg 93%
    09:00 +7°C° 0 mm 5 mps 755 mmHg 92%
    10:00 +8°C° 0 mm 5 mps 755 mmHg 90%
    11:00 +9°C° 0 mm 5 mps 755 mmHg 87%
    12:00 +9°C° 0 mm 6 mps 755 mmHg 85%
    13:00 +10°C° 0 mm 6 mps 755 mmHg 82%
    14:00 +9°C° 0 mm 6 mps 754 mmHg 84%
    15:00 +9°C° 0 mm 6 mps 754 mmHg 86%
    16:00 +8°C° 0 mm 6 mps 754 mmHg 88%
    17:00 +8°C° 0 mm 6 mps 754 mmHg 87%
    18:00 +8°C° 0 mm 6 mps 754 mmHg 87%
    19:00 +8°C° 0 mm 6 mps 754 mmHg 86%
    20:00 +8°C° 0 mm 6 mps 754 mmHg 86%
    21:00 +8°C° 0 mm 6 mps 755 mmHg 86%
    22:00 +8°C° 0 mm 5 mps 755 mmHg 85%
    23:00 +8°C° 0 mm 5 mps 755 mmHg 85%

    25 November, Saturday

    Time Temperature Precipitation Wind Pressure Humidity
    00:00 +8°C° 0 mm 5 mps 754 mmHg 84%
    01:00 +8°C° 0 mm 5 mps 754 mmHg 83%
    02:00 +8°C° 0 mm 5 mps 754 mmHg 82%
    03:00 +8°C° 0 mm 5 mps 754 mmHg 81%
    04:00 +8°C° 0 mm 5 mps 754 mmHg 80%
    05:00 +8°C° 0 mm 5 mps 754 mmHg 80%
    06:00 +7°C° 0 mm 5 mps 754 mmHg 80%
    07:00 +7°C° 0 mm 5 mps 753 mmHg 79%
    08:00 +8°C° 0 mm 5 mps 753 mmHg 77%
    09:00 +8°C° 0 mm 6 mps 753 mmHg 75%
    10:00 +9°C° 0 mm 6 mps 753 mmHg 72%
    11:00 +9°C° 0 mm 6 mps 753 mmHg 69%
    12:00 +10°C° 0 mm 6 mps 752 mmHg 65%
    13:00 +10°C° 0 mm 6 mps 752 mmHg 62%
    14:00 +10°C° 0 mm 6 mps 751 mmHg 63%
    15:00 +10°C° 0 mm 6 mps 751 mmHg 65%
    16:00 +9°C° 0 mm 6 mps 750 mmHg 66%
    17:00 +9°C° 0 mm 6 mps 750 mmHg 66%
    18:00 +9°C° 0 mm 7 mps 750 mmHg 66%
    19:00 +9°C° 0 mm 7 mps 750 mmHg 65%
    20:00 +9°C° 0 mm 7 mps 750 mmHg 66%
    21:00 +9°C° 0 mm 7 mps 750 mmHg 66%
    22:00 +9°C° 0 mm 7 mps 750 mmHg 66%
    23:00 +9°C° 0.1 mm 6 mps 750 mmHg 71%

    26 November, Sunday

    Time Temperature Precipitation Wind Pressure Humidity
    00:00 +9°C° 0.1 mm 6 mps 750 mmHg 76%
    01:00 +8°C° 0.1 mm 6 mps 750 mmHg 81%
    02:00 +8°C° 0 mm 5 mps 750 mmHg 83%
    03:00 +7°C° 0 mm 5 mps 750 mmHg 85%
    04:00 +7°C° 0 mm 4 mps 750 mmHg 87%
    05:00 +6°C° 0.2 mm 4 mps 750 mmHg 88%
    06:00 +6°C° 0.2 mm 4 mps 750 mmHg 88%
    07:00 +6°C° 0.2 mm 4 mps 750 mmHg 88%
    08:00 +5°C° 1 mm 4 mps 751 mmHg 86%
    09:00 +5°C° 1 mm 5 mps 751 mmHg 83%
    10:00 +4°C° 1 mm 6 mps 752 mmHg 80%
    11:00 +4°C° 0 mm 6 mps 752 mmHg 75%
    12:00 +4°C° 0 mm 7 mps 753 mmHg 71%
    13:00 +4°C° 0 mm 8 mps 754 mmHg 66%
    14:00 +4°C° 0 mm 8 mps 754 mmHg 67%
    15:00 +3°C° 0 mm 7 mps 754 mmHg 67%
    16:00 +2°C° 0 mm 7 mps 755 mmHg 68%
    17:00 +2°C° 0 mm 7 mps 755 mmHg 69%
    18:00 +1°C° 0 mm 8 mps 755 mmHg 69%
    19:00 +1°C° 0 mm 8 mps 755 mmHg 70%
    20:00 +2°C° 0.4 mm 8 mps 755 mmHg 72%
    21:00 +2°C° 0.4 mm 9 mps 755 mmHg 74%
    22:00 +2°C° 0.4 mm 9 mps 755 mmHg 76%
    23:00 +2°C° 0.1 mm 8 mps 755 mmHg 76%
    Show more